[[{"header":{"parameterUnit":"m.s-1","parameterCategory":1,"la1":30.2991,"la2":30.254,"lo1":-89.0895,"lo2":-89.0444,"dy":0.0017,"dx":0.0017,"nx":28,"ny":28,"refTime":"2025-06-17T09:00:00:Z","depth":0,"parameterNumber":2,"parameterNumberName":"U-component_of_WINDS"},"data":[0,0,0,0,0,0,0,0,0,0,0,0,0,0,0,0,0,0,0,0,0,0,0,0,0,0,0,0,0,0,0,0,0,0,0,0,0,0,0,0,0,0,0,0,0,0,0,0,0,0,0,0,0,0,0,0,0,0,-0.1198,-0.1198,0,-0.1193,-0.1193,-0.1193,-0.117,-0.1169,-0.1169,-0.1168,-0.1164,-0.1164,-0.1165,0,0,0,0,0,0,0,0,0,0,0,0,0,-0.1189,-0.1189,-0.1198,-0.1198,-0.1197,-0.1193,-0.1193,-0.1193,-0.117,-0.1169,-0.1169,-0.1168,-0.1164,-0.1164,-0.1165,0,0,0,0,0,0,0,0,0,0,0,0,0,-0.1189,-0.1189,-0.1198,-0.1186,-0.1184,-0.1193,-0.1193,-0.1193,-0.117,-0.1169,-0.1168,-0.1168,-0.1164,-0.1164,-0.1165,-0.1185,0,0,-0.1167,-0.1167,0,0,0,0,0,0,0,0,-0.1189,-0.119,-0.1187,-0.1186,-0.1185,-0.1181,-0.1188,-0.119,-0.117,-0.1176,-0.1168,-0.1167,-0.117,-0.117,-0.1171,-0.1184,-0.1184,-0.1167,-0.1167,-0.1167,-0.1167,0,0,0,0,0,0,0,-0.1189,-0.119,-0.1196,-0.1187,-0.1186,-0.1181,-0.118,-0.1188,-0.1178,-0.1175,-0.1173,-0.1173,-0.117,-0.1171,-0.1171,-0.1184,-0.1167,-0.1167,-0.1167,-0.1168,-0.1215,-0.1216,0,0,0,0,0,0,-0.1191,-0.119,-0.1196,-0.1196,-0.1185,-0.1182,-0.1181,-0.1183,-0.1177,-0.1176,-0.1174,-0.1172,-0.117,-0.117,-0.1171,-0.1195,-0.1167,-0.1168,-0.1168,-0.1214,-0.1215,-0.1216,0,0,0,0,0,0,-0.1191,-0.1191,-0.1196,-0.1192,-0.1192,-0.1183,-0.1186,-0.1184,-0.1185,-0.1176,-0.1174,-0.1177,-0.1169,-0.117,-0.1182,-0.1195,-0.1168,-0.1169,-0.1213,-0.1215,-0.1216,-0.1243,0,0,0,0,0,0,-0.119,-0.1192,-0.1199,-0.1193,-0.1193,-0.1207,-0.1186,-0.1184,-0.1186,-0.1183,-0.1179,-0.1177,-0.1169,-0.1181,-0.1182,-0.1195,-0.1169,-0.1212,-0.1214,-0.1216,-0.1241,-0.1245,-0.1249,0,0,0,0,0,-0.119,-0.1206,-0.1199,-0.12,-0.1201,-0.1207,-0.1208,-0.1197,-0.1187,-0.1194,-0.1189,-0.1177,-0.1193,-0.1182,-0.1184,-0.1197,-0.1211,-0.1213,-0.1215,-0.1239,-0.1244,-0.1249,0,0,0,0,0,0,-0.1214,-0.1205,-0.1197,-0.1211,-0.121,-0.1204,-0.1213,-0.1203,-0.1205,-0.1203,-0.119,-0.119,-0.1204,-0.1201,-0.119,-0.1216,-0.12,-0.1203,-0.1218,-0.1223,-0.1226,-0.1227,-0.1169,0,0,0,0,0,-0.122,-0.1226,-0.1218,-0.1231,-0.1231,-0.1222,-0.1224,-0.1217,-0.1215,-0.1215,-0.1211,-0.121,-0.1215,-0.1218,-0.1222,-0.124,-0.124,-0.125,-0.1254,-0.1257,-0.126,-0.1271,-0.1276,-0.1223,-0.1223,-0.1223,0,0,-0.1234,-0.123,-0.1235,-0.1236,-0.1234,-0.1241,-0.1222,-0.1229,-0.1235,-0.1216,-0.1228,-0.1224,-0.1223,-0.1239,-0.1245,-0.1237,-0.1274,-0.126,-0.1262,-0.1263,-0.1273,-0.1278,-0.1283,-0.1225,-0.1224,-0.1224,0,0,-0.1264,-0.1261,-0.1273,-0.1272,-0.127,-0.1263,-0.1266,-0.1261,-0.1259,-0.127,-0.1257,-0.1263,-0.1271,-0.1271,-0.1272,-0.1303,-0.1293,-0.1305,-0.1326,-0.1337,-0.1341,-0.1345,-0.1357,-0.1362,-0.1307,-0.1307,-0.1307,0,-0.1282,-0.1291,-0.128,-0.1289,-0.1291,-0.1274,-0.1287,-0.1286,-0.1286,-0.1288,-0.1278,-0.1289,-0.1287,-0.1303,-0.1311,-0.1312,-0.1316,-0.1306,-0.1341,-0.1345,-0.1348,-0.136,-0.1365,-0.1309,-0.1309,-0.1308,-0.1308,0,-0.1315,-0.1321,-0.1331,-0.1332,-0.1334,-0.1345,-0.1336,-0.134,-0.1332,-0.1328,-0.134,-0.1337,-0.1341,-0.1344,-0.1336,-0.1359,-0.1355,-0.1343,-0.1327,-0.1355,-0.1366,-0.137,-0.1311,-0.131,-0.131,-0.131,0,0,-0.1359,-0.1353,-0.1357,-0.1358,-0.1355,-0.1361,-0.1371,-0.1375,-0.138,-0.138,-0.1389,-0.1397,-0.1387,-0.1389,-0.1381,-0.139,-0.1418,-0.1378,-0.1378,-0.1387,-0.1445,-0.1455,-0.1461,-0.141,-0.1411,-0.1412,-0.1446,0,-0.1389,-0.1406,-0.1397,-0.1416,-0.1423,-0.1408,-0.1418,-0.1417,-0.1413,-0.1419,-0.1415,-0.1421,-0.1407,-0.1408,-0.1416,-0.1412,-0.1429,-0.1409,-0.142,-0.1421,-0.1423,-0.1466,-0.1476,-0.1509,-0.145,-0.1451,-0.1451,0,-0.1426,-0.1428,-0.1449,-0.1446,-0.1449,-0.1457,-0.1461,-0.1466,-0.1466,-0.1463,-0.1465,-0.1455,-0.1466,-0.1449,-0.1465,-0.1452,-0.1456,-0.1455,-0.1456,-0.1457,-0.1439,-0.1471,-0.1518,-0.1524,-0.1458,-0.1457,-0.1457,0,-0.1458,-0.1467,-0.148,-0.1481,-0.1478,-0.1485,-0.1484,-0.1483,-0.1486,-0.1489,-0.1492,-0.1496,-0.1499,-0.1503,-0.1495,-0.1483,-0.1513,-0.1494,-0.1511,-0.1512,-0.1519,-0.1519,-0.157,-0.1519,-0.1519,-0.1519,-0.1519,0,-0.1494,-0.1507,-0.1495,-0.1504,-0.1519,-0.1508,-0.1524,-0.1521,-0.152,-0.1529,-0.1515,-0.1524,-0.1512,-0.152,-0.1513,-0.1529,-0.153,-0.1528,-0.1527,-0.153,-0.1531,-0.1534,-0.1532,-0.152,-0.152,-0.152,-0.1519,0,-0.1533,-0.1526,-0.154,-0.1536,-0.1535,-0.1547,-0.1544,-0.1552,-0.1547,-0.1558,-0.156,-0.1553,-0.1561,-0.1554,-0.1561,-0.1557,-0.1578,-0.1572,-0.1578,-0.1577,-0.1595,-0.1594,-0.1651,-0.1659,-0.1601,-0.1602,-0.1602,0,-0.1557,-0.1567,-0.1564,-0.1569,-0.1569,-0.1577,-0.1581,-0.1571,-0.1575,-0.1577,-0.1585,-0.1592,-0.1597,-0.1611,-0.1607,-0.1613,-0.1609,-0.1628,-0.161,-0.1614,-0.1611,-0.1612,-0.1613,-0.1633,-0.1633,-0.1634,-0.1634,0,-0.1601,-0.1597,-0.1602,-0.1608,-0.1613,-0.1616,-0.1618,-0.1623,-0.1613,-0.1619,-0.1627,-0.1632,-0.164,-0.1648,-0.1653,-0.1652,-0.1642,-0.164,-0.1645,-0.1649,-0.1653,-0.1653,-0.159,-0.1639,-0.1639,-0.1638,-0.1638,-0.1638,-0.1634,-0.1643,-0.1643,-0.1651,-0.1652,-0.1655,-0.1663,-0.1659,-0.1666,-0.1673,-0.1666,-0.1677,-0.1678,-0.1683,-0.1684,-0.1693,-0.1685,-0.1691,-0.1693,-0.1695,-0.1699,-0.165,-0.1694,-0.1693,-0.1693,-0.1693,-0.1693,0,-0.1679,-0.1678,-0.1685,-0.169,-0.1696,-0.1685,-0.1688,-0.1694,-0.1704,-0.1705,-0.1711,-0.1722,-0.1729,-0.1726,-0.1733,-0.1741,-0.1737,-0.1743,-0.1744,-0.1744,-0.1704,-0.1701,-0.1747,-0.1747,-0.1747,-0.1747,-0.1747,-0.1747,-0.1703,-0.1719,-0.1715,-0.1731,-0.173,-0.1741,-0.1744,-0.1747,-0.1748,-0.1761,-0.1767,-0.1765,-0.1765,-0.1772,-0.1779,-0.1778,-0.1782,-0.1791,-0.1788,-0.1752,-0.1746,-0.1741,-0.1738,-0.1791,-0.1791,-0.1827,-0.1828,-0.1828]},{"header":{"parameterUnit":"m.s-1","parameterCategory":1,"la1":30.2991,"la2":30.254,"lo1":-89.0895,"lo2":-89.0444,"dy":0.0017,"dx":0.0017,"nx":28,"ny":28,"refTime":"2025-06-17T09:00:00:Z","depth":0,"parameterNumber":3,"parameterNumberName":"V-component_of_WINDS"},"data":[0,0,0,0,0,0,0,0,0,0,0,0,0,0,0,0,0,0,0,0,0,0,0,0,0,0,0,0,0,0,0,0,0,0,0,0,0,0,0,0,0,0,0,0,0,0,0,0,0,0,0,0,0,0,0,0,0,0,5.1662,5.1664,0,5.1802,5.1804,5.1806,5.1775,5.1773,5.177,5.1768,5.1904,5.191,5.1916,0,0,0,0,0,0,0,0,0,0,0,0,0,5.1359,5.1364,5.1662,5.1664,5.1665,5.1802,5.1804,5.1806,5.1776,5.1773,5.177,5.1767,5.1902,5.1909,5.1916,0,0,0,0,0,0,0,0,0,0,0,0,0,5.1494,5.1366,5.1662,5.1667,5.1669,5.1802,5.1804,5.1806,5.1777,5.1773,5.1769,5.1765,5.19,5.1908,5.1917,5.2051,0,0,5.1945,5.1949,0,0,0,0,0,0,0,0,5.1486,5.1505,5.1664,5.1667,5.1669,5.1768,5.1747,5.1888,5.1778,5.1735,5.1768,5.1763,5.1861,5.1873,5.1908,5.2057,5.2063,5.1946,5.1951,5.1955,5.1958,0,0,0,0,0,0,0,5.1477,5.1499,5.1717,5.1667,5.167,5.1659,5.1674,5.1774,5.1818,5.1739,5.1737,5.1754,5.1862,5.1899,5.1911,5.2065,5.1946,5.1954,5.1959,5.1963,5.2329,5.2333,0,0,0,0,0,0,5.1466,5.1491,5.1713,5.1721,5.1567,5.1668,5.1685,5.174,5.1817,5.1825,5.1758,5.1753,5.1886,5.19,5.1915,5.2076,5.1955,5.1964,5.1969,5.2324,5.233,5.2334,0,0,0,0,0,0,5.146,5.1487,5.1707,5.1606,5.1633,5.1678,5.1739,5.1745,5.1782,5.1831,5.1838,5.1788,5.1883,5.1903,5.2018,5.208,5.1968,5.1976,5.2319,5.2326,5.2332,5.2398,0,0,0,0,0,0,5.1452,5.1484,5.1538,5.1607,5.1639,5.181,5.1743,5.175,5.1799,5.1793,5.1862,5.187,5.1882,5.2004,5.2027,5.209,5.1983,5.2314,5.2322,5.233,5.2391,5.2406,5.2419,0,0,0,0,0,5.1441,5.155,5.1541,5.1568,5.1707,5.1814,5.1831,5.1845,5.1804,5.1857,5.1888,5.1867,5.207,5.2016,5.2041,5.2109,5.231,5.232,5.2329,5.2384,5.2403,5.2419,0,0,0,0,0,0,5.1485,5.1559,5.155,5.1686,5.1744,5.1808,5.1875,5.1865,5.1934,5.1926,5.1937,5.1953,5.207,5.21,5.204,5.2241,5.2183,5.2199,5.2217,5.2235,5.2249,5.2239,5.1991,0,0,0,0,0,5.151,5.1593,5.1653,5.1766,5.1796,5.1831,5.1878,5.1883,5.1943,5.1967,5.2006,5.2063,5.2139,5.2188,5.2261,5.2395,5.2408,5.2453,5.2467,5.2479,5.2492,5.2562,5.2583,5.2366,5.2366,5.2366,0,0,5.1564,5.1615,5.1666,5.1776,5.1822,5.1905,5.1852,5.1942,5.2002,5.1979,5.2091,5.2122,5.2185,5.2309,5.2366,5.2339,5.2554,5.2491,5.25,5.2507,5.2574,5.2595,5.2613,5.2372,5.2371,5.237,0,0,5.1703,5.1751,5.1851,5.1898,5.1968,5.199,5.2014,5.208,5.2101,5.2213,5.2197,5.2267,5.2399,5.2444,5.2484,5.2639,5.2622,5.2662,5.2737,5.2806,5.2823,5.2838,5.2892,5.2911,5.2675,5.2675,5.2675,0,5.176,5.1887,5.1902,5.1994,5.2042,5.2027,5.2125,5.2169,5.2259,5.2291,5.2259,5.2423,5.2465,5.2598,5.2636,5.267,5.2695,5.2655,5.282,5.2835,5.2849,5.2901,5.2921,5.2679,5.2679,5.2678,5.2678,0,5.1953,5.2041,5.2112,5.2201,5.2257,5.2351,5.2377,5.2431,5.2431,5.2456,5.2569,5.2618,5.27,5.2732,5.2732,5.2865,5.2846,5.2817,5.276,5.2874,5.2923,5.2942,5.2686,5.2684,5.2683,5.2682,0,0,5.2125,5.2221,5.2246,5.2286,5.2362,5.2429,5.2521,5.2603,5.2648,5.271,5.2786,5.2897,5.287,5.2916,5.2921,5.2981,5.3099,5.2945,5.2946,5.2971,5.3246,5.3267,5.329,5.3088,5.3092,5.3095,5.324,0,5.227,5.2437,5.2452,5.26,5.268,5.2666,5.2745,5.2799,5.2824,5.2893,5.2918,5.2996,5.2956,5.2984,5.3043,5.3072,5.3154,5.3062,5.3156,5.3159,5.3141,5.3315,5.3338,5.3473,5.3259,5.3262,5.3265,0,5.2463,5.2533,5.2689,5.2753,5.2787,5.2859,5.2934,5.3001,5.306,5.3074,5.3124,5.3121,5.3212,5.3152,5.3277,5.3214,5.3253,5.3273,5.3278,5.3287,5.3219,5.3328,5.3517,5.3537,5.3295,5.3293,5.329,0,5.2572,5.2704,5.2814,5.2849,5.2926,5.2976,5.301,5.3066,5.3113,5.3178,5.3209,5.3282,5.3323,5.3378,5.3393,5.3348,5.3518,5.3459,5.3529,5.3529,5.3565,5.3563,5.3762,5.3592,5.3591,5.3591,5.3591,0,5.2733,5.2829,5.2864,5.2932,5.3038,5.3053,5.3156,5.3186,5.3236,5.3307,5.3298,5.3364,5.3381,5.3449,5.3461,5.3562,5.358,5.3592,5.3594,5.3593,5.3591,5.3618,5.3609,5.3596,5.3595,5.3594,5.3593,0,5.2872,5.29,5.3019,5.3082,5.31,5.3175,5.3228,5.3291,5.3314,5.3404,5.3426,5.3461,5.3541,5.3562,5.3657,5.3665,5.3784,5.3777,5.3765,5.3764,5.3833,5.3826,5.4057,5.4087,5.3897,5.3899,5.39,0,5.2973,5.3046,5.3118,5.3166,5.3203,5.328,5.3329,5.3345,5.3396,5.3468,5.3522,5.3602,5.3666,5.3794,5.3827,5.3899,5.3893,5.3969,5.3904,5.39,5.3893,5.3888,5.3895,5.3981,5.3983,5.3985,5.3986,0,5.3148,5.3158,5.3231,5.3308,5.3367,5.3428,5.3486,5.3525,5.3549,5.3606,5.3689,5.3739,5.3836,5.3915,5.3987,5.4018,5.4006,5.4006,5.4026,5.4026,5.4015,5.4021,5.3798,5.4001,5.3999,5.3998,5.3998,5.3997,5.3271,5.3335,5.3395,5.3475,5.3521,5.3575,5.3638,5.3669,5.374,5.3822,5.3826,5.3916,5.397,5.4067,5.4102,5.417,5.4147,5.4176,5.4183,5.419,5.4196,5.4005,5.4183,5.4183,5.4183,5.4182,5.4182,0,5.3445,5.3483,5.3557,5.3639,5.3701,5.3686,5.3749,5.3801,5.3881,5.3934,5.3998,5.4092,5.4168,5.4206,5.428,5.4327,5.4322,5.4345,5.4342,5.4349,5.4213,5.4188,5.4348,5.4348,5.4347,5.4347,5.4347,5.4347,5.3543,5.3651,5.3667,5.3796,5.3832,5.3922,5.3959,5.4008,5.405,5.4157,5.422,5.4245,5.4291,5.4368,5.4436,5.4444,5.4471,5.4497,5.4503,5.4375,5.4359,5.4343,5.4319,5.4503,5.4504,5.4633,5.4634,5.4635]}]]